When you browse on this site, cookies collect data to enhance your experience and personalize the content and advertising you see.
Visit our Privacy Policy to learn more. By continuing to use the site, you agree to this use of cookies and data.
  • în România
  • Lista ţărilor
  • Pe 7 zile
  • Temperatura apei
  • Hartă satelitară
  • Meteo pe hartă
  • Widget-uri
  • user-avatar
    Intrare

    Meteo pe oră la Azzano San Paolo

    Astăzi, 18 Aprilie, Joi

    Timp Temperatura Precipitaţii Vânt Presiune Umiditate
    00:00 +13°C° 0 mm 1 m/s 744 mmHg 74%
    01:00 +13°C° 0 mm 1 m/s 744 mmHg 72%
    02:00 +13°C° 0 mm 1 m/s 744 mmHg 74%
    03:00 +12°C° 0 mm 1 m/s 744 mmHg 75%
    04:00 +12°C° 0 mm 1 m/s 744 mmHg 76%
    05:00 +12°C° 0 mm 1 m/s 745 mmHg 76%
    06:00 +13°C° 0 mm 1 m/s 745 mmHg 75%
    07:00 +13°C° 0 mm 1 m/s 745 mmHg 75%
    08:00 +15°C° 0 mm 2 m/s 745 mmHg 69%
    09:00 +16°C° 0 mm 2 m/s 745 mmHg 64%
    10:00 +17°C° 0 mm 2 m/s 745 mmHg 58%
    11:00 +18°C° 0 mm 3 m/s 745 mmHg 56%
    12:00 +18°C° 0 mm 3 m/s 745 mmHg 55%
    13:00 +19°C° 0 mm 3 m/s 745 mmHg 53%
    14:00 +19°C° 0 mm 3 m/s 745 mmHg 53%
    15:00 +19°C° 0 mm 3 m/s 745 mmHg 54%
    16:00 +19°C° 0 mm 3 m/s 745 mmHg 55%
    17:00 +18°C° 0.1 mm 2 m/s 745 mmHg 60%
    18:00 +16°C° 0.1 mm 2 m/s 745 mmHg 65%
    19:00 +15°C° 0.1 mm 1 m/s 745 mmHg 70%
    20:00 +14°C° 0 mm 1 m/s 746 mmHg 71%
    21:00 +14°C° 0 mm 1 m/s 747 mmHg 73%
    22:00 +13°C° 0 mm 1 m/s 748 mmHg 74%
    23:00 +13°C° 0 mm 1 m/s 748 mmHg 75%

    Mâine, 19 Aprilie, Vineri

    Timp Temperatura Precipitaţii Vânt Presiune Umiditate
    00:00 +12°C° 0 mm 1 m/s 748 mmHg 75%
    01:00 +12°C° 0 mm 1 m/s 749 mmHg 76%
    02:00 +12°C° 0 mm 1 m/s 749 mmHg 76%
    03:00 +11°C° 0 mm 1 m/s 749 mmHg 77%
    04:00 +11°C° 0 mm 1 m/s 749 mmHg 77%
    05:00 +12°C° 0 mm 1 m/s 749 mmHg 76%
    06:00 +12°C° 0 mm 1 m/s 749 mmHg 75%
    07:00 +13°C° 0 mm 1 m/s 749 mmHg 73%
    08:00 +15°C° 0 mm 1 m/s 749 mmHg 67%
    09:00 +16°C° 0 mm 1 m/s 749 mmHg 60%
    10:00 +19°C° 0 mm 1 m/s 749 mmHg 53%
    11:00 +20°C° 0 mm 1 m/s 749 mmHg 52%
    12:00 +20°C° 0 mm 1 m/s 749 mmHg 50%
    13:00 +21°C° 0 mm 1 m/s 749 mmHg 48%
    14:00 +21°C° 0 mm 1 m/s 749 mmHg 49%
    15:00 +21°C° 0 mm 1 m/s 748 mmHg 50%
    16:00 +21°C° 0 mm 1 m/s 748 mmHg 50%
    17:00 +20°C° 0 mm 1 m/s 748 mmHg 56%
    18:00 +18°C° 0 mm 1 m/s 748 mmHg 62%
    19:00 +16°C° 0 mm 1 m/s 748 mmHg 68%
    20:00 +15°C° 0 mm 1 m/s 748 mmHg 70%
    21:00 +14°C° 0 mm 1 m/s 749 mmHg 73%
    22:00 +13°C° 0 mm 1 m/s 749 mmHg 75%
    23:00 +13°C° 0 mm 1 m/s 749 mmHg 75%

    Poimâine, 20 Aprilie, Sâmbătă

    Timp Temperatura Precipitaţii Vânt Presiune Umiditate
    00:00 +13°C° 0 mm 1 m/s 749 mmHg 75%
    01:00 +12°C° 0 mm 1 m/s 749 mmHg 76%
    02:00 +12°C° 0 mm 1 m/s 749 mmHg 75%
    03:00 +12°C° 0 mm 1 m/s 749 mmHg 75%
    04:00 +11°C° 0 mm 1 m/s 749 mmHg 75%
    05:00 +12°C° 0 mm 1 m/s 749 mmHg 73%
    06:00 +13°C° 0 mm 1 m/s 749 mmHg 72%
    07:00 +14°C° 0 mm 1 m/s 748 mmHg 70%
    08:00 +15°C° 0 mm 1 m/s 748 mmHg 64%
    09:00 +18°C° 0 mm 1 m/s 748 mmHg 57%
    10:00 +20°C° 0 mm 1 m/s 748 mmHg 51%
    11:00 +21°C° 0 mm 1 m/s 748 mmHg 49%
    12:00 +21°C° 0 mm 1 m/s 747 mmHg 47%
    13:00 +21°C° 0 mm 2 m/s 747 mmHg 45%
    14:00 +21°C° 0 mm 2 m/s 747 mmHg 46%
    15:00 +21°C° 0 mm 2 m/s 746 mmHg 48%
    16:00 +21°C° 0 mm 2 m/s 746 mmHg 49%
    17:00 +19°C° 0 mm 2 m/s 746 mmHg 55%
    18:00 +19°C° 0 mm 1 m/s 746 mmHg 61%
    19:00 +16°C° 0 mm 1 m/s 746 mmHg 67%
    20:00 +16°C° 0 mm 1 m/s 746 mmHg 68%
    21:00 +15°C° 0 mm 1 m/s 746 mmHg 70%
    22:00 +14°C° 0 mm 1 m/s 747 mmHg 71%
    23:00 +14°C° 0 mm 1 m/s 747 mmHg 72%

    21 Aprilie, Duminică

    Timp Temperatura Precipitaţii Vânt Presiune Umiditate
    00:00 +14°C° 0 mm 1 m/s 746 mmHg 72%
    01:00 +13°C° 0 mm 1 m/s 746 mmHg 72%
    02:00 +13°C° 0 mm 1 m/s 746 mmHg 72%
    03:00 +13°C° 0 mm 1 m/s 745 mmHg 72%
    04:00 +13°C° 0 mm 1 m/s 745 mmHg 72%
    05:00 +13°C° 0 mm 1 m/s 745 mmHg 71%
    06:00 +14°C° 0 mm 1 m/s 744 mmHg 71%
    07:00 +13°C° 0 mm 0 m/s 744 mmHg 71%
    08:00 +16°C° 0 mm 1 m/s 744 mmHg 65%
    09:00 +18°C° 0 mm 1 m/s 743 mmHg 60%
    10:00 +20°C° 0 mm 1 m/s 743 mmHg 55%
    11:00 +19°C° 0 mm 2 m/s 743 mmHg 53%
    12:00 +20°C° 0 mm 2 m/s 742 mmHg 51%
    13:00 +21°C° 0 mm 2 m/s 742 mmHg 49%
    14:00 +21°C° 0 mm 2 m/s 742 mmHg 50%
    15:00 +21°C° 0 mm 2 m/s 741 mmHg 50%
    16:00 +20°C° 0 mm 2 m/s 741 mmHg 51%
    17:00 +19°C° 0 mm 2 m/s 741 mmHg 57%
    18:00 +18°C° 0 mm 2 m/s 741 mmHg 63%
    19:00 +16°C° 0 mm 1 m/s 741 mmHg 69%
    20:00 +16°C° 0 mm 1 m/s 741 mmHg 69%
    21:00 +15°C° 0 mm 1 m/s 742 mmHg 68%
    22:00 +15°C° 0 mm 1 m/s 742 mmHg 67%
    23:00 +14°C° 0 mm 1 m/s 742 mmHg 68%

    22 Aprilie, Luni

    Timp Temperatura Precipitaţii Vânt Presiune Umiditate
    00:00 +14°C° 0 mm 1 m/s 742 mmHg 69%
    01:00 +13°C° 0 mm 0 m/s 742 mmHg 69%
    02:00 +13°C° 0 mm 1 m/s 741 mmHg 71%
    03:00 +12°C° 0 mm 1 m/s 741 mmHg 74%
    04:00 +11°C° 0 mm 1 m/s 741 mmHg 76%
    05:00 +11°C° 0 mm 0 m/s 740 mmHg 74%
    06:00 +12°C° 0 mm 0 m/s 740 mmHg 73%
    07:00 +13°C° 0 mm 0 m/s 740 mmHg 71%
    08:00 +14°C° 0 mm 0 m/s 740 mmHg 63%
    09:00 +16°C° 0 mm 1 m/s 740 mmHg 54%
    10:00 +19°C° 0 mm 1 m/s 739 mmHg 46%
    11:00 +18°C° 0 mm 2 m/s 739 mmHg 46%
    12:00 +18°C° 0 mm 2 m/s 739 mmHg 45%
    13:00 +19°C° 0 mm 2 m/s 738 mmHg 44%
    14:00 +19°C° 0 mm 3 m/s 738 mmHg 45%
    15:00 +19°C° 0 mm 3 m/s 737 mmHg 45%
    16:00 +20°C° 0 mm 3 m/s 737 mmHg 45%
    17:00 +18°C° 0 mm 3 m/s 736 mmHg 53%
    18:00 +16°C° 0 mm 2 m/s 736 mmHg 61%
    19:00 +15°C° 0 mm 2 m/s 736 mmHg 69%
    20:00 +14°C° 0 mm 2 m/s 736 mmHg 70%
    21:00 +14°C° 0 mm 1 m/s 736 mmHg 71%
    22:00 +13°C° 0 mm 1 m/s 737 mmHg 72%
    23:00 +13°C° 0 mm 1 m/s 736 mmHg 70%

    23 Aprilie, Marţi

    Timp Temperatura Precipitaţii Vânt Presiune Umiditate
    00:00 +13°C° 0 mm 2 m/s 736 mmHg 69%
    01:00 +13°C° 0 mm 2 m/s 735 mmHg 68%
    02:00 +13°C° 0.3 mm 1 m/s 735 mmHg 71%
    03:00 +13°C° 0.3 mm 1 m/s 734 mmHg 74%
    04:00 +12°C° 0.3 mm 0 m/s 734 mmHg 77%
    05:00 +12°C° 0 mm 0 m/s 733 mmHg 77%
    06:00 +12°C° 0 mm 0 m/s 733 mmHg 76%
    07:00 +12°C° 0 mm 0 m/s 733 mmHg 76%
    08:00 +13°C° 0.1 mm 1 m/s 733 mmHg 76%
    09:00 +14°C° 0.1 mm 1 m/s 732 mmHg 77%
    10:00 +14°C° 0.1 mm 1 m/s 732 mmHg 78%
    11:00 +14°C° 0.2 mm 1 m/s 732 mmHg 79%
    12:00 +14°C° 0.2 mm 1 m/s 732 mmHg 80%
    13:00 +14°C° 0.2 mm 1 m/s 732 mmHg 81%
    14:00 +13°C° 0.3 mm 1 m/s 732 mmHg 83%
    15:00 +13°C° 0.3 mm 1 m/s 732 mmHg 85%
    16:00 +13°C° 0.3 mm 1 m/s 732 mmHg 87%
    17:00 +12°C° 0.1 mm 0 m/s 733 mmHg 87%
    18:00 +12°C° 0.1 mm 0 m/s 733 mmHg 87%
    19:00 +12°C° 0.1 mm 0 m/s 733 mmHg 87%
    20:00 +12°C° 0 mm 0 m/s 734 mmHg 87%
    21:00 +12°C° 0 mm 0 m/s 734 mmHg 87%
    22:00 +12°C° 0 mm 0 m/s 735 mmHg 87%
    23:00 +11°C° 0 mm 0 m/s 735 mmHg 88%
    Arată mai mult